Franklin, PA

12:02 PM EDT on October 17, 2019 (GMT -0400)
Venango Regional

Weather History for KFKL - August, 2019

Change the Weather History Date:

Friday, August 2, 2019

  Actual Average Record
Temperature  
Mean Temperature 70 °F -  
Max Temperature 84 °F 82 °F 101 °F (1933)
Min Temperature 57 °F 57 °F 44 °F (1952)
Cooling Degree Days 4    
Growing Degree Days 20 (Base 50)    
Moisture  
Dew Point 62 °F    
Average Humidity 75    
Maximum Humidity 97    
Minimum Humidity 51    
Precipitation  
Precipitation 0.00 in - - ()
Sea Level Pressure  
Sea Level Pressure 30.11 in    
Wind  
Wind Speed 4 mph (ENE)    
Max Wind Speed 10 mph    
Max Gust Speed -    
Visibility 10 miles    
Events Rain , Thunderstorm    
Averages and records for this station are not official NWS values.
T = Trace of Precipitation, MM = Missing Value Source: NWS Daily Summary

Daily Weather History Graph

Daily Weather History Graph

Search for Another Location

Airport or City:

Astronomy

Aug. 02, 2019 Rise Set
Actual Time 6:15 AM EDT 8:35 PM EDT
Civil Twilight 5:44 AM EDT 9:06 PM EDT
Nautical Twilight 5:05 AM EDT 9:44 PM EDT
Astronomical Twilight 4:23 AM EDT 10:27 PM EDT
Moon 7:52 AM EDT (8/2) 10:01 PM EDT (8/2)
Length of Visible Light 15h 22m
Length of Day
14h 20m
Waxing Crescent, 4% of the Moon is Illuminated
Aug 2
Waxing Crescent
Aug 7
First Quarter
Aug 15
Full
Aug 23
Last Quarter
Aug 30
New

Hourly Weather History & Observations

Time (EDT) Temp. Heat Index Dew Point Humidity Pressure Visibility Wind Dir Wind Speed Gust Speed Precip Events Conditions
12:56 AM 64.0 °F - 55.9 °F 75% 30.14 in 10.0 mi NE 5.8 mph - N/A   Clear
1:56 AM 63.0 °F - 55.9 °F 78% 30.14 in 10.0 mi NE 5.8 mph - N/A   Clear
2:56 AM 62.1 °F - 57.0 °F 84% 30.13 in 10.0 mi NE 3.5 mph - N/A   Clear
3:56 AM 60.1 °F - 57.0 °F 90% 30.13 in 10.0 mi ENE 3.5 mph - N/A   Clear
4:56 AM 59.0 °F - 57.0 °F 93% 30.12 in 10.0 mi NE 3.5 mph - N/A   Clear
5:56 AM 57.9 °F - 57.0 °F 97% 30.12 in 10.0 mi NNE 4.6 mph - N/A   Scattered Clouds
6:56 AM 60.1 °F - 57.9 °F 93% 30.13 in 10.0 mi ENE 4.6 mph - N/A   Clear
7:56 AM 63.0 °F - 59.0 °F 87% 30.14 in 10.0 mi East 4.6 mph - N/A   Clear
8:56 AM 68.0 °F - 61.0 °F 78% 30.15 in 10.0 mi Calm Calm - N/A   Clear
9:56 AM 72.0 °F - 63.0 °F 73% 30.14 in 10.0 mi Variable 3.5 mph - N/A   Clear
10:56 AM 75.9 °F - 64.0 °F 67% 30.14 in 10.0 mi SE 3.5 mph - N/A   Clear
11:56 AM 79.0 °F - 64.9 °F 62% 30.12 in 10.0 mi NE 4.6 mph - N/A   Clear
12:56 PM 80.1 °F 81.2 °F 62.1 °F 54% 30.11 in 10.0 mi Variable 4.6 mph - N/A   Clear
1:56 PM 80.1 °F 81.1 °F 61.0 °F 52% 30.10 in 10.0 mi Calm Calm - N/A   Overcast
2:56 PM 82.0 °F 83.0 °F 62.1 °F 51% 30.09 in 9.0 mi Calm Calm - N/A   Clear
3:56 PM 81.0 °F 82.2 °F 63.0 °F 54% 30.08 in 10.0 mi West 6.9 mph - N/A   Scattered Clouds
4:56 PM 80.1 °F 81.5 °F 63.0 °F 56% 30.08 in 10.0 mi Calm Calm - N/A   Scattered Clouds
5:56 PM 81.0 °F 82.2 °F 63.0 °F 54% 30.06 in 10.0 mi WSW 3.5 mph - N/A   Scattered Clouds
6:56 PM 79.0 °F - 66.9 °F 66% 30.06 in 10.0 mi Variable 3.5 mph - N/A Thunderstorm Mostly Cloudy
7:38 PM 77.0 °F - 66.2 °F 69% 30.08 in 10.0 mi NNE 5.8 mph - N/A   Scattered Clouds
7:56 PM 75.9 °F - 66.0 °F 71% 30.07 in 10.0 mi East 5.8 mph - N/A Thunderstorm Thunderstorm
8:00 PM 75.2 °F - 66.2 °F 73% 30.10 in 10.0 mi SE 9.2 mph - N/A Thunderstorm Thunderstorm
8:11 PM 75.2 °F - 64.4 °F 69% 30.10 in 10.0 mi South 10.4 mph - N/A Thunderstorm Thunderstorm
8:31 PM 69.8 °F - 64.4 °F 83% 30.11 in 10.0 mi South 3.5 mph - N/A Rain , Thunderstorm Light Rain
8:41 PM 69.8 °F - 64.4 °F 83% 30.11 in 10.0 mi Calm Calm - N/A Rain Light Rain
8:56 PM 68.0 °F - 64.0 °F 87% 30.09 in 10.0 mi Calm Calm - N/A Rain Light Rain
9:56 PM 66.9 °F - 64.0 °F 90% 30.10 in 10.0 mi Calm Calm - 0.00 in   Scattered Clouds
10:56 PM 64.9 °F - 64.0 °F 97% 30.10 in 6.0 mi Calm Calm - N/A   Clear
11:56 PM 64.0 °F - 63.0 °F 96% 30.09 in 7.0 mi Calm Calm - N/A   Clear